Tracking 35055 objects as of 18-Aug-2026
HD Live streaming from Space Station
objects crossing your sky now

COSMOS 57 DEB


COSMOS 57 DEB is no longer on orbit


NORAD ID: 1195
Int'l Code: 1965-012CY
Launch date: February 22, 1965
Source: Commonwealth of Independent States (former USSR) (CIS)
Launch site: TYURATAM MISSILE AND SPACE COMPLEX (TTMTR)
Decay date: 1965-03-09

Note: This is SATELLITE DEBRIS
Your satellite tracking list
Your tracking list is empty




NASA's NSSDC Master Catalog

Two Line Element Set (TLE):
1 01195U 65012 CY 65058.11304851  .03361236 +24940-1 +00000-0 0  9991
2 01195 064.7690 283.0880 0170272 073.6263 288.2389 15.95484762000769
Source of the keplerian elements: AFSPC